Weather History for KLFT - February, 2013

Change the Weather History Date:

Tuesday, February 26, 2013

  Actual Average Record
Temperature  
Mean Temperature 53 °F 58 °F  
Max Temperature 61 °F 68 °F 82 °F (1962)
Min Temperature 44 °F 49 °F 24 °F (1914)
Degree Days  
Heating Degree Days 12 8  
Month to date heating degree days 177 261  
Since 1 July heating degree days 985 1217  
Growing Degree Days 2 (Base 50)    
Moisture  
Dew Point 37 °F    
Average Humidity 57    
Maximum Humidity 71    
Minimum Humidity 42    
Precipitation  
Precipitation 0.00 in 0.15 in 1.89 in (1966)
Month to date precipitation 6.69 4.17  
Year to date precipitation 17.87 9.84  
Snow  
Snow 0.00 in 0.00 in 0.00 in ()
Month to date snowfall 0.0 0.0  
Since 1 July snowfall 0.0 0.0  
Snow Depth 0.00 in    
Sea Level Pressure  
Sea Level Pressure 29.81 in    
Wind  
Wind Speed 10 mph (West)    
Max Wind Speed 24 mph    
Max Gust Speed 33 mph    
Visibility 10 miles    
Events      
T = Trace of Precipitation, MM = Missing Value Source: NWS Daily Summary

Daily Weather History Graph

Daily Weather History Graph

Search for Another Location

Airport or City:

Trip Planner

Search our weather history database for the weather conditions in past years. The results will help you decide how hot, cold, wet, or windy it might be!

Date:

Astronomy

Feb. 26, 2013 Rise Set
Actual Time 6:36 AM CST 6:04 PM CST
Civil Twilight 6:12 AM CST 6:29 PM CST
Nautical Twilight 5:44 AM CST 6:56 PM CST
Astronomical Twilight 5:17 AM CST 7:24 PM CST
Moon 7:12 PM CST (2/26) 6:47 AM CST (2/26)
Length of Visible Light 12h 16m
Length of Day
11h 28m
Full, 99% of the Moon is Illuminated
Feb 26
Full
Mar 4
Last Quarter
Mar 11
New
Mar 19
First Quarter
Mar 27
Full

Hourly Weather History & Observations

Time (CST) Temp. Windchill Dew Point Humidity Pressure Visibility Wind Dir Wind Speed Gust Speed Precip Events Conditions
12:53 AM 50.0 °F - 34.0 °F 54% 29.65 in 10.0 mi West 18.4 mph 24.2 mph N/A   Clear
1:53 AM 48.9 °F - 34.0 °F 56% 29.67 in 10.0 mi West 11.5 mph 20.7 mph N/A   Clear
2:53 AM 46.9 °F - 32.0 °F 56% 29.69 in 10.0 mi West 13.8 mph 28.8 mph N/A   Clear
3:53 AM 46.0 °F 39.9 °F 33.1 °F 61% 29.69 in 10.0 mi West 13.8 mph 23.0 mph N/A   Scattered Clouds
4:53 AM 46.0 °F 39.3 °F 33.1 °F 61% 29.70 in 10.0 mi West 16.1 mph 23.0 mph N/A   Partly Cloudy
5:53 AM 45.0 °F 38.5 °F 32.0 °F 60% 29.74 in 10.0 mi West 13.8 mph 20.7 mph N/A   Clear
6:53 AM 44.1 °F 38.6 °F 33.1 °F 65% 29.75 in 10.0 mi West 10.4 mph - N/A   Clear
7:53 AM 46.9 °F - 34.0 °F 61% 29.78 in 10.0 mi West 12.7 mph 20.7 mph N/A   Clear
8:53 AM 48.0 °F - 33.1 °F 56% 29.82 in 10.0 mi WNW 17.3 mph 32.2 mph N/A   Partly Cloudy
9:53 AM 50.0 °F - 34.0 °F 54% 29.83 in 10.0 mi WNW 16.1 mph 25.3 mph N/A   Clear
10:53 AM 52.0 °F - 36.0 °F 54% 29.84 in 10.0 mi West 15.0 mph 23.0 mph N/A   Mostly Cloudy
11:53 AM 54.0 °F - 36.0 °F 51% 29.84 in 10.0 mi West 13.8 mph 21.9 mph N/A   Scattered Clouds
12:53 PM 55.9 °F - 36.0 °F 47% 29.83 in 10.0 mi West 16.1 mph 25.3 mph N/A   Clear
1:53 PM 57.0 °F - 37.0 °F 47% 29.80 in 10.0 mi West 17.3 mph 24.2 mph N/A   Clear
2:53 PM 59.0 °F - 37.0 °F 44% 29.81 in 10.0 mi WNW 12.7 mph 21.9 mph N/A   Clear
3:53 PM 61.0 °F - 37.9 °F 42% 29.81 in 10.0 mi West 11.5 mph 17.3 mph N/A   Clear
4:53 PM 60.1 °F - 37.0 °F 42% 29.83 in 10.0 mi West 9.2 mph - N/A   Clear
5:53 PM 57.9 °F - 37.0 °F 46% 29.84 in 10.0 mi WNW 4.6 mph - N/A   Clear
6:53 PM 55.9 °F - 37.0 °F 49% 29.87 in 10.0 mi West 3.5 mph - N/A   Clear
7:53 PM 52.0 °F - 39.9 °F 63% 29.89 in 10.0 mi Calm Calm - N/A   Clear
8:53 PM 53.1 °F - 41.0 °F 64% 29.91 in 10.0 mi Calm Calm - N/A   Clear
9:53 PM 54.0 °F - 45.0 °F 72% 29.93 in 10.0 mi Calm Calm - N/A   Clear
10:53 PM 52.0 °F - 43.0 °F 71% 29.94 in 10.0 mi Calm Calm - N/A   Clear
11:53 PM 50.0 °F - 44.1 °F 80% 29.94 in 10.0 mi Calm Calm - N/A   Clear